Regional Weather Roundup
Issued by NWS State College, PA

Home | Current Version | Previous Version | Graphics & Text | Print | Product List | Glossary Off
Versions: 1 2 3 4 5 6 7 8 9 10 11 12 13 14 15 16 17 18 19 20 21 22 23 24 25 26 27 28 29 30 31 32 33 34 35 36 37 38 39 40 41 42 43 44 45 46 47 48 49 50

000
ASUS41 KCTP 221403
RWRCTP

REGIONAL WEATHER ROUNDUP
NATIONAL WEATHER SERVICE STATE COLLEGE PA
1000 AM EDT MON MAY 22 2017

Note: "fair" indicates few or no clouds below 12,000 feet with no
significant weather and/or obstructions to visibility.

* = STATION THAT DOES NOT REPORT PRECIPITATION /E.G. RAIN...SNOW...ETC/
    THUNDER OR FOG.

PAZ002>004-007>009-013>016-020>023-029>032-221500-
WESTERN PENNSYLVANIA

CITY           SKY/WX    TMP DP  RH WIND       PRES   REMARKS
ERIE           CLOUDY    53  47  79 W17G30    30.01R
MEADVILLE      CLOUDY    55  50  83 W12       30.01R
FRANKLIN*      CLOUDY    61  54  77 W8        30.02S
NEW CASTLE     CLOUDY    59  52  77 W8        30.04R
BEAVER COUNTY  CLOUDY    59  52  77 MISG      30.04R
BUTLER*        CLOUDY    63  55  77 W9        30.02S
PITTSBURGH INT CLOUDY    62  56  80 W9        30.03R
PITTSBURGH     CLOUDY    63  55  75 W10       30.02S
INDIANA*       NOT AVBL
LATROBE        CLOUDY    61  59  94 VRB6      30.03R
WASHINGTON CO* PTSUNNY   63  55  77 W8        30.06S
$$

PAZ004>006-010>012-017>019-024>028-033>037-041-042-045-046-049>053-221500-
CENTRAL PENNSYLVANIA

CITY           SKY/WX    TMP DP  RH WIND       PRES   REMARKS
BRADFORD       CLOUDY    58  55  90 CALM      29.99F
DUBOIS         CLOUDY    59  56  89 NW8       30.00R
CLEARFIELD     HVY RAIN  56  56 100 N3        30.02S FOG
JOHNSTOWN      CLOUDY    58  58 100 SW8       30.02S FOG
ALTOONA        CLOUDY    62  56  80 VRB3      30.03F
STATE COLLEGE  CLOUDY    59  54  82 SW7       30.03F
WILLIAMSPORT   CLOUDY    60  52  74 VRB7      30.03F
SELINSGROVE    CLOUDY    60  53  77 S9        30.06F
FT INDIANTOWN  DRIZZLE   55  55 100 E3        30.08F
CAPITAL CITY   CLOUDY    59  54  83 SE8       30.08F
HARRISBURG     CLOUDY    58  57  97 SE6       30.07F
YORK           LGT RAIN  58  57  97 SE3       30.08S
$$

PAZ038>040-043-044-047-048-054-055-060>062-067>071-221500-
EASTERN PENNSYLVANIA

CITY           SKY/WX    TMP DP  RH WIND       PRES   REMARKS
SCRANTON       CLOUDY    60  52  74 SW7       30.06F
MOUNT POCONO   FOG       49  49 100 SE10      30.10S VSB 1/4
ALLENTOWN      CLOUDY    57  51  80 E7        30.10F
QUAKERTOWN*    CLOUDY    55  55 100 SE5       30.11F
READING        CLOUDY    57  55  93 CALM      30.08F
LANCASTER      LGT RAIN  57  57 100 E7        30.08F FOG
COATESVILLE    LGT RAIN  55  55 100 E7        30.10F
POTTSTOWN      CLOUDY    54  54 100 VRB3      30.11F FOG
BLUE BELL      CLOUDY    55  55 100 E3        30.11F
DOYLESTOWN     CLOUDY    54  54 100 CALM      30.10F FOG
WILLOW GROVE   NOT AVBL
NORTH PHILA    CLOUDY    59  57  93 E8        30.11F
PHILADELPHIA   LGT RAIN  59  56  89 E6        30.10F
$$




USA.gov is the U.S. government's official web portal to all federal, state and local government web resources and services.